Time,TemperatureF,DewpointF,PressureIn,WindDirection,WindDirectionDegrees,WindSpeedMPH,WindSpeedGustMPH,Humidity,HourlyPrecipIn,Conditions,Clouds,dailyrainin,SoftwareType,DateUTC
2013-03-19 00:03:00,34.0,32.0,29.91,East,96,0.0,5.0,93,0.00,,,0.48,,2013-03-19 04:03:00,
2013-03-19 00:13:00,34.0,32.0,29.91,East,96,0.0,5.0,93,0.00,,,0.48,,2013-03-19 04:13:00,
2013-03-19 00:23:00,34.0,32.0,29.91,ESE,121,2.0,5.0,93,0.00,,,0.39,,2013-03-19 04:23:00,
2013-03-19 00:33:00,34.0,32.0,29.90,ESE,122,2.0,5.0,93,0.00,,,0.39,,2013-03-19 04:33:00,
2013-03-19 00:43:00,34.0,32.0,29.90,ESE,122,2.0,5.0,93,0.00,,,0.39,,2013-03-19 04:43:00,
2013-03-19 00:53:00,35.0,33.0,29.90,ESE,123,0.0,1.0,93,0.00,,,0.39,,2013-03-19 04:53:00,
2013-03-19 01:02:00,35.0,33.0,29.89,ENE,78,1.0,3.0,93,0.00,,,0.39,,2013-03-19 05:02:00,
2013-03-19 01:12:00,35.0,33.0,29.89,ENE,78,1.0,3.0,93,0.00,,,0.39,,2013-03-19 05:12:00,
2013-03-19 01:22:00,35.0,33.0,29.89,ENE,76,0.0,1.0,92,0.00,,,0.30,,2013-03-19 05:22:00,
2013-03-19 01:32:00,35.0,33.0,29.88,NE,34,0.0,3.0,92,0.00,,,0.30,,2013-03-19 05:32:00,
2013-03-19 01:43:00,35.0,33.0,29.88,NE,34,0.0,3.0,92,0.00,,,0.30,,2013-03-19 05:43:00,
2013-03-19 01:52:00,35.0,33.0,29.86,NNE,28,0.0,2.0,92,0.00,,,0.30,,2013-03-19 05:52:00,
2013-03-19 02:02:00,35.0,33.0,29.86,NNE,26,1.0,3.0,92,0.00,,,0.30,,2013-03-19 06:02:00,
2013-03-19 02:12:00,35.0,33.0,29.86,NNE,26,1.0,3.0,92,0.00,,,0.30,,2013-03-19 06:12:00,
2013-03-19 02:22:00,35.0,33.0,29.85,NNE,26,0.0,3.0,93,0.00,,,0.23,,2013-03-19 06:22:00,
2013-03-19 02:32:00,35.0,33.0,29.85,NNE,22,1.0,3.0,92,0.00,,,0.23,,2013-03-19 06:32:00,
2013-03-19 02:42:00,35.0,33.0,29.85,NNE,22,1.0,3.0,92,0.00,,,0.23,,2013-03-19 06:42:00,
2013-03-19 02:52:00,35.0,33.0,29.84,NNE,22,1.0,2.0,93,0.00,,,0.23,,2013-03-19 06:52:00,
2013-03-19 03:02:00,35.0,33.0,29.84,NNE,22,0.0,1.0,92,0.00,,,0.23,,2013-03-19 07:02:00,
2013-03-19 03:12:00,35.0,33.0,29.84,NNE,22,0.0,1.0,92,0.00,,,0.23,,2013-03-19 07:12:00,
2013-03-19 03:22:00,35.0,33.0,29.84,NNE,22,0.0,2.0,92,0.00,,,0.19,,2013-03-19 07:22:00,
2013-03-19 03:32:00,35.0,33.0,29.83,NNE,22,0.0,1.0,93,0.00,,,0.19,,2013-03-19 07:32:00,
2013-03-19 03:42:00,35.0,33.0,29.83,NNE,22,0.0,1.0,93,0.00,,,0.19,,2013-03-19 07:42:00,
2013-03-19 03:53:00,35.0,33.0,29.82,NNE,22,0.0,2.0,93,0.00,,,0.19,,2013-03-19 07:53:00,
2013-03-19 04:03:00,35.0,33.0,29.83,NNE,33,0.0,3.0,93,0.00,,,0.19,,2013-03-19 08:03:00,
2013-03-19 04:12:00,35.0,33.0,29.83,NNE,33,0.0,3.0,93,0.00,,,0.19,,2013-03-19 08:12:00,
2013-03-19 04:22:00,36.0,34.0,29.82,NNE,33,0.0,2.0,93,0.00,,,0.15,,2013-03-19 08:22:00,
2013-03-19 04:32:00,35.0,33.0,29.80,NNE,33,0.0,2.0,92,0.00,,,0.15,,2013-03-19 08:32:00,
2013-03-19 04:42:00,35.0,33.0,29.80,NNE,33,0.0,2.0,92,0.00,,,0.15,,2013-03-19 08:42:00,
2013-03-19 04:52:00,35.0,33.0,29.80,NE,34,2.0,3.0,93,0.00,,,0.15,,2013-03-19 08:52:00,
2013-03-19 05:02:00,36.0,34.0,29.79,East,96,2.0,5.0,93,0.00,,,0.15,,2013-03-19 09:02:00,
2013-03-19 05:12:00,36.0,34.0,29.79,East,96,2.0,5.0,93,0.00,,,0.15,,2013-03-19 09:12:00,
2013-03-19 05:22:00,36.0,34.0,29.80,ENE,78,0.0,1.0,93,0.00,,,0.14,,2013-03-19 09:22:00,
2013-03-19 05:33:00,36.0,34.0,29.80,ENE,78,1.0,2.0,93,0.00,,,0.14,,2013-03-19 09:33:00,
2013-03-19 05:43:00,36.0,34.0,29.80,ENE,78,1.0,2.0,93,0.00,,,0.14,,2013-03-19 09:43:00,
2013-03-19 05:53:00,36.0,34.0,29.81,ESE,103,1.0,4.0,93,0.00,,,0.14,,2013-03-19 09:53:00,
2013-03-19 06:03:00,37.0,35.0,29.82,ESE,109,1.0,4.0,93,0.00,,,0.14,,2013-03-19 10:03:00,
2013-03-19 06:13:00,37.0,35.0,29.82,ESE,109,1.0,4.0,93,0.00,,,0.14,,2013-03-19 10:13:00,
2013-03-19 06:23:00,37.0,35.0,29.82,ENE,61,0.0,2.0,93,0.00,,,0.14,,2013-03-19 10:23:00,
2013-03-19 06:33:00,39.0,37.0,29.81,WNW,294,3.0,7.0,92,0.00,,,0.14,,2013-03-19 10:33:00,
2013-03-19 06:42:00,39.0,37.0,29.81,WNW,294,3.0,7.0,92,0.00,,,0.14,,2013-03-19 10:42:00,
2013-03-19 06:53:00,39.0,36.0,29.82,North,5,2.0,6.0,90,0.00,,,0.14,,2013-03-19 10:53:00,
2013-03-19 07:03:00,39.0,36.0,29.83,WNW,302,4.0,7.0,90,0.00,,,0.14,,2013-03-19 11:03:00,
2013-03-19 07:12:00,39.0,36.0,29.83,WNW,302,4.0,7.0,90,0.00,,,0.14,,2013-03-19 11:12:00,
2013-03-19 07:22:00,40.0,37.0,29.84,NE,44,3.0,9.0,90,0.00,,,0.14,,2013-03-19 11:22:00,
2013-03-19 07:33:00,41.0,38.0,29.84,NW,306,4.0,9.0,90,0.00,,,0.14,,2013-03-19 11:33:00,
2013-03-19 07:43:00,41.0,38.0,29.84,NW,306,4.0,9.0,90,0.00,,,0.14,,2013-03-19 11:43:00,
2013-03-19 07:53:00,42.0,39.0,29.85,WNW,286,2.0,6.0,89,0.00,,,0.14,,2013-03-19 11:53:00,
2013-03-19 08:02:00,43.0,39.0,29.86,WSW,244,5.0,10.0,87,0.00,,,0.14,,2013-03-19 12:02:00,
2013-03-19 08:12:00,43.0,39.0,29.86,WSW,244,5.0,10.0,87,0.00,,,0.14,,2013-03-19 12:12:00,
2013-03-19 08:22:00,45.0,39.0,29.85,West,268,9.0,17.0,80,0.00,,,0.13,,2013-03-19 12:22:00,
2013-03-19 08:33:00,45.0,39.0,29.85,WSW,244,4.0,12.0,78,0.00,,,0.13,,2013-03-19 12:33:00,
2013-03-19 08:42:00,45.0,39.0,29.85,WSW,244,4.0,12.0,78,0.00,,,0.13,,2013-03-19 12:42:00,
2013-03-19 08:52:00,46.0,39.0,29.87,NE,34,0.0,7.0,77,0.00,,,0.13,,2013-03-19 12:52:00,
2013-03-19 09:02:00,47.0,37.0,29.88,North,11,4.0,9.0,67,0.00,,,0.13,,2013-03-19 13:02:00,
2013-03-19 09:12:00,47.0,37.0,29.88,North,11,4.0,9.0,67,0.00,,,0.13,,2013-03-19 13:12:00,
2013-03-19 09:22:00,49.0,37.0,29.89,NNE,30,2.0,5.0,63,0.00,,,0.13,,2013-03-19 13:22:00,
2013-03-19 09:33:00,48.0,34.0,29.89,West,271,4.0,10.0,58,0.00,,,0.13,,2013-03-19 13:33:00,
2013-03-19 09:42:00,48.0,34.0,29.89,West,271,4.0,10.0,58,0.00,,,0.13,,2013-03-19 13:42:00,
2013-03-19 09:53:00,48.0,34.0,29.90,NNW,332,5.0,16.0,57,0.00,,,0.13,,2013-03-19 13:53:00,
2013-03-19 10:02:00,48.0,32.0,29.90,WNW,287,9.0,17.0,53,0.00,,,0.13,,2013-03-19 14:02:00,
2013-03-19 10:12:00,48.0,32.0,29.90,WNW,287,9.0,17.0,53,0.00,,,0.13,,2013-03-19 14:12:00,
2013-03-19 10:22:00,50.0,33.0,29.89,WNW,301,7.0,11.0,51,0.00,,,0.13,,2013-03-19 14:22:00,
2013-03-19 10:32:00,50.0,31.0,29.89,ENE,69,7.0,20.0,48,0.00,,,0.13,,2013-03-19 14:32:00,
2013-03-19 10:42:00,50.0,31.0,29.89,ENE,69,7.0,20.0,48,0.00,,,0.13,,2013-03-19 14:42:00,
2013-03-19 10:53:00,50.0,30.0,29.90,West,273,5.0,15.0,46,0.00,,,0.13,,2013-03-19 14:53:00,
2013-03-19 11:02:00,51.0,28.0,29.90,NNW,327,7.0,16.0,41,0.00,,,0.13,,2013-03-19 15:02:00,
2013-03-19 11:12:00,51.0,28.0,29.90,NNW,327,7.0,16.0,41,0.00,,,0.13,,2013-03-19 15:12:00,
2013-03-19 11:22:00,50.0,28.0,29.90,NW,316,7.0,17.0,42,0.00,,,0.13,,2013-03-19 15:22:00,
2013-03-19 11:34:00,51.0,29.0,29.90,West,265,7.0,13.0,42,0.00,,,0.13,,2013-03-19 15:34:00,
2013-03-19 11:44:00,51.0,29.0,29.90,West,265,7.0,13.0,42,0.00,,,0.13,,2013-03-19 15:44:00,
2013-03-19 11:54:00,51.0,29.0,29.90,WNW,284,8.0,15.0,42,0.00,,,0.13,,2013-03-19 15:54:00,
2013-03-19 12:04:00,51.0,28.0,29.90,WNW,283,10.0,18.0,41,0.00,,,0.13,,2013-03-19 16:04:00,
2013-03-19 12:13:00,51.0,28.0,29.90,WNW,283,10.0,18.0,41,0.00,,,0.13,,2013-03-19 16:13:00,
2013-03-19 12:24:00,52.0,28.0,29.90,WSW,240,11.0,16.0,39,0.00,,,0.13,,2013-03-19 16:24:00,
2013-03-19 12:34:00,53.0,29.0,29.90,West,262,6.0,15.0,40,0.00,,,0.13,,2013-03-19 16:34:00,
2013-03-19 12:44:00,53.0,29.0,29.90,West,262,6.0,15.0,40,0.00,,,0.13,,2013-03-19 16:44:00,
2013-03-19 12:55:00,53.0,29.0,29.90,WSW,243,6.0,18.0,39,0.00,,,0.13,,2013-03-19 16:55:00,
2013-03-19 13:03:00,53.0,29.0,29.89,West,259,4.0,19.0,39,0.00,,,0.13,,2013-03-19 17:03:00,
2013-03-19 13:14:00,54.0,28.0,29.88,West,266,7.0,19.0,36,0.00,,,0.13,,2013-03-19 17:14:00,
2013-03-19 13:23:00,54.0,28.0,29.88,West,266,7.0,19.0,36,0.00,,,0.13,,2013-03-19 17:23:00,
2013-03-19 13:34:00,55.0,26.0,29.88,WSW,238,8.0,17.0,33,0.00,,,0.13,,2013-03-19 17:34:00,
2013-03-19 13:44:00,55.0,26.0,29.88,WSW,238,8.0,17.0,33,0.00,,,0.13,,2013-03-19 17:44:00,
2013-03-19 13:53:00,55.0,24.0,29.87,SW,236,12.0,23.0,30,0.00,,,0.13,,2013-03-19 17:53:00,
2013-03-19 14:03:00,56.0,24.0,29.86,SW,230,6.0,20.0,29,0.00,,,0.13,,2013-03-19 18:03:00,
2013-03-19 14:13:00,56.0,24.0,29.86,SW,230,6.0,20.0,29,0.00,,,0.13,,2013-03-19 18:13:00,
2013-03-19 14:23:00,56.0,23.0,29.85,WNW,290,10.0,21.0,27,0.00,,,0.13,,2013-03-19 18:23:00,
2013-03-19 14:33:00,57.0,23.0,29.84,West,267,13.0,23.0,27,0.00,,,0.13,,2013-03-19 18:33:00,
2013-03-19 14:43:00,57.0,23.0,29.84,West,267,13.0,23.0,27,0.00,,,0.13,,2013-03-19 18:43:00,
2013-03-19 14:53:00,57.0,23.0,29.84,WSW,255,9.0,19.0,27,0.00,,,0.13,,2013-03-19 18:53:00,
2013-03-19 15:02:00,58.0,24.0,29.83,WNW,302,7.0,25.0,27,0.00,,,0.13,,2013-03-19 19:02:00,
2013-03-19 15:12:00,58.0,24.0,29.83,WNW,302,7.0,25.0,27,0.00,,,0.13,,2013-03-19 19:12:00,
2013-03-19 15:22:00,59.0,22.0,29.82,West,263,9.0,23.0,24,0.00,,,0.13,,2013-03-19 19:22:00,
2013-03-19 15:33:00,59.0,23.0,29.86,WSW,256,10.0,22.0,25,0.00,,,0.13,,2013-03-19 19:33:00,
2013-03-19 15:43:00,59.0,23.0,29.86,WSW,256,10.0,22.0,25,0.00,,,0.13,,2013-03-19 19:43:00,
2013-03-19 15:53:00,60.0,22.0,29.85,WSW,247,11.0,25.0,23,0.00,,,0.13,,2013-03-19 19:53:00,
2013-03-19 16:03:00,60.0,23.0,29.86,West,263,10.0,26.0,24,0.00,,,0.13,,2013-03-19 20:03:00,
2013-03-19 16:12:00,61.0,23.0,29.86,WNW,301,5.0,19.0,23,0.00,,,0.13,,2013-03-19 20:12:00,
2013-03-19 16:22:00,61.0,23.0,29.86,WNW,301,5.0,19.0,23,0.00,,,0.13,,2013-03-19 20:22:00,
2013-03-19 16:33:00,59.0,19.0,29.87,West,281,10.0,22.0,21,0.00,,,0.13,,2013-03-19 20:33:00,
2013-03-19 16:43:00,59.0,19.0,29.87,West,281,10.0,22.0,21,0.00,,,0.13,,2013-03-19 20:43:00,
2013-03-19 16:53:00,58.0,18.0,29.87,WNW,286,15.0,28.0,21,0.00,,,0.13,,2013-03-19 20:53:00,
2013-03-19 17:02:00,59.0,19.0,29.87,West,259,12.0,25.0,21,0.00,,,0.13,,2013-03-19 21:02:00,
2013-03-19 17:12:00,59.0,19.0,29.87,West,259,12.0,25.0,21,0.00,,,0.13,,2013-03-19 21:12:00,
2013-03-19 17:23:00,59.0,19.0,29.88,West,261,10.0,21.0,21,0.00,,,0.11,,2013-03-19 21:23:00,
2013-03-19 17:34:00,59.0,18.0,29.89,WSW,257,13.0,19.0,20,0.00,,,0.11,,2013-03-19 21:34:00,
2013-03-19 17:43:00,59.0,18.0,29.89,WSW,257,13.0,19.0,20,0.00,,,0.11,,2013-03-19 21:43:00,
2013-03-19 17:53:00,58.0,15.0,29.89,ENE,63,5.0,22.0,18,0.00,,,0.11,,2013-03-19 21:53:00,
2013-03-19 18:03:00,57.0,13.0,29.90,ENE,76,8.0,21.0,17,0.00,,,0.11,,2013-03-19 22:03:00,
2013-03-19 18:13:00,57.0,13.0,29.90,ENE,76,8.0,21.0,17,0.00,,,0.11,,2013-03-19 22:13:00,
2013-03-19 18:23:00,57.0,13.0,29.91,WNW,295,10.0,22.0,17,0.00,,,0.09,,2013-03-19 22:23:00,
2013-03-19 18:33:00,56.0,9.0,29.91,WSW,253,12.0,19.0,15,0.00,,,0.09,,2013-03-19 22:33:00,
2013-03-19 18:43:00,55.0,5.0,29.91,West,274,9.0,22.0,13,0.00,,,0.09,,2013-03-19 22:43:00,
2013-03-19 18:53:00,55.0,5.0,29.91,West,274,9.0,22.0,13,0.00,,,0.09,,2013-03-19 22:53:00,
2013-03-19 19:03:00,55.0,5.0,29.92,WSW,242,10.0,25.0,13,0.00,,,0.09,,2013-03-19 23:03:00,
2013-03-19 19:12:00,55.0,5.0,29.92,WSW,242,10.0,25.0,13,0.00,,,0.09,,2013-03-19 23:12:00,
2013-03-19 19:22:00,54.0,1.0,29.93,West,263,15.0,27.0,11,0.00,,,0.06,,2013-03-19 23:22:00,
2013-03-19 19:32:00,53.0,2.0,29.94,West,262,15.0,24.0,12,0.00,,,0.06,,2013-03-19 23:32:00,
2013-03-19 19:42:00,53.0,2.0,29.94,West,262,15.0,24.0,12,0.00,,,0.06,,2013-03-19 23:42:00,
2013-03-19 19:53:00,52.0,-1.0,29.95,West,263,14.0,30.0,11,0.00,,,0.06,,2013-03-19 23:53:00,
2013-03-19 20:03:00,52.0,3.0,29.96,West,265,10.0,25.0,13,0.00,,,0.06,,2013-03-20 00:03:00,
2013-03-19 20:13:00,52.0,3.0,29.96,West,265,10.0,25.0,13,0.00,,,0.06,,2013-03-20 00:13:00,
2013-03-19 20:22:00,51.0,4.0,29.96,West,277,7.0,21.0,14,0.00,,,0.03,,2013-03-20 00:22:00,
2013-03-19 20:33:00,51.0,4.0,29.96,WSW,254,10.0,25.0,14,0.00,,,0.03,,2013-03-20 00:33:00,
2013-03-19 20:42:00,51.0,4.0,29.96,WSW,254,10.0,25.0,14,0.00,,,0.03,,2013-03-20 00:42:00,
2013-03-19 20:52:00,50.0,3.0,29.97,WSW,247,7.0,16.0,14,0.00,,,0.03,,2013-03-20 00:52:00,
2013-03-19 21:03:00,50.0,3.0,29.98,WSW,257,7.0,17.0,14,0.00,,,0.03,,2013-03-20 01:03:00,
2013-03-19 21:12:00,50.0,3.0,29.98,WSW,257,7.0,17.0,14,0.00,,,0.03,,2013-03-20 01:12:00,
2013-03-19 21:22:00,49.0,2.0,29.99,West,277,8.0,24.0,14,0.00,,,0.01,,2013-03-20 01:22:00,
2013-03-19 21:32:00,49.0,2.0,30.00,West,264,9.0,25.0,14,0.00,,,0.01,,2013-03-20 01:32:00,
2013-03-19 21:42:00,49.0,2.0,30.00,West,264,9.0,25.0,14,0.00,,,0.01,,2013-03-20 01:42:00,
2013-03-19 21:53:00,48.0,3.0,30.01,SW,224,9.0,16.0,15,0.00,,,0.01,,2013-03-20 01:53:00,
2013-03-19 22:02:00,48.0,3.0,30.01,West,273,8.0,16.0,15,0.00,,,0.01,,2013-03-20 02:02:00,
2013-03-19 22:12:00,48.0,3.0,30.01,West,273,8.0,16.0,15,0.00,,,0.01,,2013-03-20 02:12:00,
2013-03-19 22:22:00,47.0,2.0,30.01,SSW,209,6.0,16.0,15,0.00,,,0.00,,2013-03-20 02:22:00,
2013-03-19 22:32:00,47.0,0.0,30.02,WSW,245,5.0,15.0,14,0.00,,,0.00,,2013-03-20 02:32:00,
2013-03-19 22:42:00,47.0,0.0,30.02,WSW,245,5.0,15.0,14,0.00,,,0.00,,2013-03-20 02:42:00,
2013-03-19 22:53:00,47.0,2.0,30.02,North,360,6.0,16.0,15,0.00,,,0.00,,2013-03-20 02:53:00,
2013-03-19 23:02:00,46.0,1.0,30.02,SW,236,5.0,17.0,15,0.00,,,0.00,,2013-03-20 03:02:00,
2013-03-19 23:12:00,46.0,4.0,30.02,West,274,8.0,13.0,17,0.00,,,0.00,,2013-03-20 03:12:00,
2013-03-19 23:22:00,46.0,4.0,30.02,West,274,8.0,13.0,17,0.00,,,0.00,,2013-03-20 03:22:00,
2013-03-19 23:34:00,46.0,4.0,30.03,WSW,251,3.0,16.0,17,0.00,,,0.00,,2013-03-20 03:34:00,
2013-03-19 23:43:00,46.0,4.0,30.03,WSW,251,3.0,16.0,17,0.00,,,0.00,,2013-03-20 03:43:00,
2013-03-19 23:53:00,45.0,3.0,30.03,NW,320,3.0,14.0,17,0.00,,,0.00,,2013-03-20 03:53:00,